Starlink 30082

operational
NORAD ID: 57509 Int'l Des: 2023-113 Owner: SPXS Country: US Constellation: starlink
LEOCIRCULAR

About Starlink 30082

Description loading...

Live Position

Loading 3D Globe...

Upcoming Passes

Altitude History

Altitude vs Time

uPlot chart will show altitude changes over time

Two-Line Element Set

1 57509U 23113Q 25260.29682013 .00000314 00000-0 38317-4 0 9996
2 57509 43.0025 239.8300 0001084 284.7854 75.2868 15.02535586117575
Epoch: Sep 17, 2025 • Age: 30 hours

Current Status

Altitude 561.4 km
Velocity 7.58 km/s
Sub-Earth Point -14.91°S, 18.68°E
Launch Date Aug 7, 2023
Age 2.1 years
Type internet

Technical Details

Classification Payload
Mass 730.00 kg
Dry Mass 700.00 kg
Total Mass 730.00 kg
Length 0.30 m
Diameter 4.10 m
Span 29.00 m
Shape Box + pan
Manufacturer SPXS
Bus Type Starlink V2M
Phase Status In Orbit
Owner/State SPXS/US

Large Constellations

Loading constellations...